Location: La Vergne
(36.0160°N, 86.5820°W)
Time: 11:09:48
(UTC-05:00)

Daily predictions for brighter satellites

Satellite Brightness Start Highest point End
(mag) Time Altitude Azimuth Time Altitude Azimuth Time Altitude Azimuth
Okean 2 4.0 20:15:00 10° SSE 20:18:52 37° E 20:22:43 10° NNE
Cosmos 1892 Rocket 3.7 20:15:20 10° S 20:19:40 59° E 20:24:04 10° NNE
GEOS 3 Rocket 4.0 20:15:37 10° SE 20:20:44 53° NE 20:25:48 10° NNW
Aureole 2 Rocket 3.0 20:20:21 10° S 20:24:10 43° ESE 20:27:41 10° NNE
Cosmos 1331 Rocket 4.1 20:22:03 10° N 20:27:12 60° ENE 20:32:17 10° SSE
OAO 3 Copernicus 4.4 20:23:01 10° W 20:28:04 73° S 20:33:05 10° ESE
SeaSat 1 4.3 20:25:49 10° E 20:29:01 18° NE 20:32:15 10° NNE
Cosmos 2237 Rocket 4.4 20:29:54 10° WSW 20:34:52 32° WNW 20:39:52 10° N
USA 186 1.6 20:33:38 10° S 20:36:32 74° W 20:39:15 10° NNW
CZ-2C R/B 0.9 20:36:18 10° SSE 20:38:28 41° ENE 20:40:40 10° N
DEBRIS 4.1 20:37:38 10° NW 20:43:20 35° NNE 20:45:46 10° E
Cosmos 1726 Rocket 3.7 20:40:44 10° N 20:45:11 81° W 20:49:35 10° S
Cosmos 2278 Rocket 3.5 20:40:24 10° NW 20:45:39 40° WSW 20:50:53 10° S
Cosmos 1461 3.9 20:42:47 10° N 20:46:41 33° NE 20:49:44 14° ESE
ATLAS 3B R/B 3.9 20:42:22 10° SSE 20:48:16 25° ESE 20:54:07 10° ENE
SJ-11-01 4.4 20:44:43 10° SSE 20:49:17 60° ENE 20:53:54 10° N
Tsikada Rocket 4.4 20:44:38 10° SSE 20:50:38 44° E 20:56:39 10° NNE
BREEZE-M DEB (TANK) 4.4 20:46:28 10° WNW 20:50:51 57° SW 21:06:15 12° SE
Cosmos 2369 Rocket 4.0 20:54:40 10° NNE 20:58:09 16° NE 21:01:37 10° E
Cosmos 2058 Rocket 3.3 20:57:14 10° NNW 21:01:35 69° W 21:05:54 10° S
Cosmos 1602 Rocket 3.6 20:57:58 10° S 21:02:22 62° E 21:06:48 10° NNE
ERS-1 Rocket 3.0 20:57:28 10° SSE 21:02:29 88° WSW 21:07:32 10° NNW
Cosmos 1666 2.7 20:58:46 10° N 21:02:41 74° E 21:05:58 14° SSE
APEX 3.8 20:58:27 10° NNW 21:02:44 77° ENE 21:07:16 15° SSE
SL-16 R/B 3.6 20:58:02 10° SW 21:03:20 42° WNW 21:08:41 10° N
Cosmos 2285 Rocket 4.1 20:57:31 10° NNW 21:03:51 81° WSW 21:10:12 10° SSE
Abrixas rocket 2.3 21:00:49 10° NW 21:04:15 79° NE 21:06:15 23° ESE
Atlas Centaur 2 3.2 20:57:36 10° WSW 21:04:36 50° SSE 21:12:40 10° E
USA 234 4.4 21:01:27 10° E 21:07:12 34° NNE 21:12:58 10° NNW
Meteor 1-15 Rocket 4.2 21:01:58 10° N 21:07:36 87° E 21:13:12 10° S
Envisat 3.2 21:05:32 17° SSE 21:09:21 55° ENE 21:14:19 10° N
Cosmos 1464 Rocket 4.1 21:06:13 10° N 21:12:22 78° W 21:18:31 10° S
ISS -3.4 21:10:55 10° SW 21:14:10 89° SE 21:17:27 10° NE
CZ-3C R/B 3.9 21:11:04 10° SW 21:14:41 13° SSW 21:16:41 11° S
Cosmos 1812 Rocket 3.9 21:11:42 10° N 21:15:56 46° E 21:18:12 24° SE
deb Chang Zheng 4 4.3 21:12:50 10° N 21:17:08 55° WNW 21:21:23 10° SSW
PSLV R/B 4.1 21:15:32 10° W 21:19:01 53° NNW 21:22:30 10° ENE
Cosmos 1939 Rocket 2.9 21:16:38 18° SSE 21:19:41 89° WSW 21:23:52 10° NNW
GRACE-1 3.8 21:20:40 10° N 21:23:33 80° E 21:24:30 38° S
GRACE-2 3.8 21:21:06 10° N 21:23:59 81° E 21:24:56 38° S
H-2A R/B 2.7 21:22:24 13° S 21:26:04 53° W 21:30:18 10° NNW
SPOT 5 2.6 21:24:58 25° SSE 21:27:28 71° ENE 21:31:48 10° N
COSMOS 2455 2.8 21:23:05 10° SSW 21:29:04 85° ESE 21:35:07 10° NNE
ALOS 4.5 21:25:34 10° SSW 21:29:12 22° W 21:32:51 10° NW
Cosmos 1515 3.9 21:28:51 33° SSE 21:30:15 52° E 21:34:01 10° NNE
Cosmos 2034 Rocket 4.2 21:25:18 10° N 21:31:39 74° W 21:37:26 13° S
Cosmos 1603 4.1 21:26:46 10° SSW 21:32:20 63° WNW 21:37:53 10° NNE
CZ-4 SHROUD 3.2 21:31:44 39° S 21:32:47 82° WSW 21:35:57 10° NNW
Cosmos 1626 Rocket 4.3 21:30:40 10° SSW 21:35:01 54° W 21:39:21 10° N
BREEZE-M DEB (TANK) 2.1 21:33:17 10° WNW 21:35:27 50° SW 21:35:27 50° SW
YAOGAN 6 3.0 21:39:45 42° ESE 21:40:25 47° ENE 21:44:01 10° N
Terra 3.5 21:43:54 17° E 21:44:44 18° ENE 21:47:52 10° NNE
Meteor 2-12 Rocket 4.3 21:40:07 10° N 21:46:14 79° E 21:49:33 29° SSE
Cosmos 1346 Rocket 3.3 21:48:51 40° E 21:48:51 40° E 21:52:23 10° NNE
Cosmos 1992 Rocket 4.2 21:43:37 10° N 21:48:45 57° ENE 21:50:30 38° SE
Cosmos 1953 Rocket 3.7 21:52:36 46° ESE 21:53:11 50° E 21:57:28 10° NNE
Cosmos 1943 3.1 21:50:37 13° SSW 21:55:45 81° ESE 22:01:28 10° NNE
PSLV R/B 4.4 21:55:18 31° SW 21:55:57 35° W 21:58:49 10° NNW
MetOp-A 4.2 21:55:39 31° S 21:58:17 76° WSW 22:03:40 10° NNW
H-2A R/B 3.1 21:57:40 26° E 21:58:29 27° ENE 22:02:40 10° NNE
Cosmos 2346 Rocket 4.4 21:56:16 27° S 21:59:54 80° E 22:06:04 10° N
Lacrosse 4 Rocket 1.2 22:03:03 64° E 22:03:03 64° E 22:06:56 10° NNE
Cosmos 1943 Rocket 3.7 21:59:08 10° N 22:03:18 21° ENE 22:04:49 19° E
Geosat 4.0 22:00:28 10° NNE 22:05:27 60° ESE 22:06:36 47° SSE
Cosmos 1190 Rocket 3.9 22:03:10 29° SSW 22:05:59 85° ESE 22:11:20 10° NNE
SeaSat 1 2.8 22:04:20 37° S 22:06:06 59° WSW 22:10:59 10° NNW
SPOT 1/Viking Rocket 3.5 22:05:20 44° SSE 22:07:04 88° WSW 22:12:15 10° NNW
Cosmos 1900 4.3 22:07:02 46° S 22:08:22 64° ESE 22:13:28 10° NE
Cosmos-2242 4.5 22:08:28 10° NNE 22:11:38 25° ENE 22:11:38 25° ENE
Milstar 3 Cent rocket 4.1 22:13:21 10° WSW 22:16:17 14° SSW 22:16:23 14° SSW
CZ-4B R/B 4.4 22:13:02 10° N 22:17:56 49° WNW 22:22:07 14° SW
Cosmos 676 Rocket 3.9 22:21:47 60° SSE 22:22:36 71° ESE 22:27:55 10° NNE
DELTA 2 DEB (DPAF) 4.0 22:22:59 76° ESE 22:23:12 79° ENE 22:27:41 10° N
DMSP B5D2-2 4.3 22:21:12 10° NNE 22:26:13 51° E 22:26:13 51° E
Cosmos 1766 3.9 22:23:14 10° N 22:26:30 50° NE 22:26:30 50° NE
Cosmos 1758 Rocket 3.5 22:27:03 75° SW 22:27:18 79° W 22:31:41 10° N
Cosmos 1140 Rocket 4.5 22:28:55 32° ENE 22:28:55 32° ENE 22:32:30 10° NE
CARTOSAT-1 4.0 22:31:25 51° NE 22:31:25 51° NE 22:35:13 10° N
ARGOS 3.4 22:33:16 48° SSW 22:34:34 62° WSW 22:39:58 10° NNW
ATLAS 3B R/B 3.3 22:30:49 10° SW 22:38:28 66° WNW 22:46:00 10° NNE
Cosmos 2369 Rocket 2.2 22:37:06 10° NNW 22:42:42 67° WSW 22:43:27 60° SSW
CZ-4C R/B 4.1 22:46:15 52° W 22:46:15 52° W 22:50:00 10° NNW
USA 234 3.2 22:48:30 57° S 22:49:49 72° SW 22:56:24 10° NW
ISS 0.1 22:49:20 10° NW 22:51:01 13° NNW 22:52:41 10° N
Atlas Centaur 2 3.0 22:46:20 10° W 22:54:10 59° S 22:55:21 55° SSE
Cosmos 1092 Rocket 4.3 22:57:45 49° E 22:57:45 49° E 23:03:42 10° NNE
Cosmos 1953 3.7 23:04:07 10° N 23:06:37 37° N 23:06:37 37° N
Spot 4 4.1 23:09:15 64° NW 23:09:15 64° NW 23:13:23 10° NNW
Cosmos 2263 4.5 23:03:24 10° NNW 23:08:53 56° WSW 23:08:55 56° WSW
COSMOS 2406 3.2 23:09:27 77° NE 23:09:27 77° NE 23:14:50 10° NNE
Nadezhda 4 Rocket 3.8 23:08:39 78° SSE 23:09:06 85° E 23:15:28 10° N
USA 238 DEB 3.7 23:13:44 50° SW 23:15:49 83° WNW 23:22:56 10° NNE
USA 238 3.7 23:13:55 51° SW 23:15:55 84° WNW 23:23:02 10° NNE
Terra 2.8 23:22:47 40° WNW 23:22:47 40° WNW 23:26:39 10° NNW
CZ-4C R/B 3.8 23:26:51 22° ENE 23:26:51 22° ENE 23:29:11 10° NE
Cosmos 1741 Rocket 4.4 23:32:35 62° NNW 23:32:35 62° NNW 23:37:09 10° NNE
H-2A R/B 3.4 23:38:18 28° W 23:38:18 28° W 23:42:07 10° NW
Lacrosse 4 Rocket 4.5 23:41:15 10° WNW 23:42:03 10° NW 23:42:52 10° NW
Cosmos 2221 4.4 23:42:43 10° N 23:44:51 26° NNE 23:44:51 26° NNE
Cosmos 1943 Rocket 2.9 23:41:57 10° NNW 23:46:20 44° WNW 23:46:20 44° WNW
Meteor 1-24 Rocket 4.5 23:48:55 46° ENE 23:48:55 46° ENE 23:53:35 10° NNE
Cosmos 2026 Rocket 4.1 23:49:48 62° NE 23:49:48 62° NE 23:55:01 10° NNE
NOSS 3-2 (C) 4.2 23:51:59 42° ENE 23:51:59 42° ENE 23:56:33 10° NE
